Flag for Australia Weather past 2 weeks in Wodonga, Victoria, Australia

Now
47 °F

Cool.


Feels Like: 47 °F
Forecast: 40 / 64 °F
Wind: 1 mph from Southeast

Location: Albury Aeroport Aws

Current Time: Aug 21, 2014 at 8:38:43 PM

Latest Report: Aug 21, 2014 at 8:00 PM


Visibility: N/A

Pressure: 30.40 "Hg

Humidity: 83%

Dew point: 42 °F

Location of WodongaLocation

Historic Weather in Wodonga — Graph

°F

Wodonga temperature yesterday

Maximum temperature yesterday: 60 °F (at 5:00 PM)
Minimum temperature yesterday: 36 °F (at 6:00 AM)
Average temperature yesterday: 47 °F

Past Weeks' High & Low Weather Summary

 TemperatureHumidityPressure
High65 °F (Aug 18, 2:00 PM)100% (Aug 7, 8:00 AM)30.59 "Hg (Aug 7, 8:00 AM)
Low30 °F (Aug 13, 6:00 AM)34% (Aug 12, 2:00 PM)29.87 "Hg (Aug 17, 3:00 PM)
Average47 °F79%30.30 "Hg
* Reported Aug 6 6:00 PM — Aug 21 6:00 PM, Wodonga, Weather by CustomWeather, © 2014

Note: Actual official high and low records may vary slightly from our data, if they occured in-between our weather recording intervals... More about our weather records

Advertising

Wodonga weather history for previous 24 hours

 ConditionsComfort  
Time TempWeatherWind HumidityBarometerVisibility
6:00 PM
Aug 21
56 °FCool.No wind62%30.36 "HgN/A
5:00 PM60 °FRefreshingly cool.6 mph51%30.35 "HgN/A
3:00 PM62 °FRefreshingly cool.5 mph48%30.35 "HgN/A
2:00 PM61 °FRefreshingly cool.5 mph53%30.36 "HgN/A
12:00 PM58 °FCool.6 mph63%30.41 "HgN/A
11:00 AM55 °FCool.7 mph67%30.43 "HgN/A
9:00 AM48 °FCool.1 mph81%30.44 "HgN/A
8:00 AM43 °FQuite cool.No wind100%30.43 "HgN/A
6:00 AM36 °FChilly.No wind98%30.39 "HgN/A
5:00 AM38 °FChilly.No wind99%30.37 "HgN/A
3:00 AM38 °FChilly.No wind97%30.34 "HgN/A
2:00 AM42 °FQuite cool.3 mph100%30.34 "HgN/A
12:00 AM42 °FQuite cool.No wind97%30.32 "HgN/A
11:00 PM
Aug 20
43 °FQuite cool.No wind95%30.32 "HgN/A
9:00 PM44 °FQuite cool.No wind93%30.32 "HgN/A
8:00 PM47 °FCool.1 mph86%30.30 "HgN/A
Weather by CustomWeather, © 2014

See weather overviewHow to use our weather pages